Location: *
(47.8307°S, 178.3954°E)
Time: 08:06:36
(UTC+00:00)

ATLAS 3B R/B - Pass Details

Date: 12 August 2024
Orbit: 940 x 1254 km, 63.8° (Epoch: 18 September)

Event Time Altitude Azimuth Distance (km) Brightness Sun altitude
Exits shadow 15:35:12 17° 33° (NNE) 2,420 4.6 -36.7°
Maximum altitude 15:38:24 24° 68° (ENE) 2,030 4.5 -36.1°
Drops below altitude 10° 15:43:23 10° 118° (ESE) 2,789 5.6 -35.4°
Sets 15:46:25 0° 132° (SE) 3,706 6.4 -34.9°
